Regional Weather Roundup
Issued by NWS

Home | Current Version | Previous Version | Text Only | Print | Product List | Glossary Off
Versions: 1 2 3 4 5 6 7 8 9 10 11 12 13 14 15 16 17 18 19 20 21 22 23 24 25 26 27 28 29 30 31 32 33 34 35 36 37 38 39 40 41 42 43 44 45 46 47 48 49 50

000
ASUS43 KTOP 170708
RWRKS

WEATHER ROUNDUP FOR KANSAS
NATIONAL WEATHER SERVICE GOODLAND KS
100 AM CST TUE JAN 17 2017

NOTE:  "FAIR" INDICATES FEW OR NO CLOUDS BELOW 12,000 FEET WITH NO
SIGNIFICANT WEATHER AND/OR OBSTRUCTIONS TO VISIBILITY.

KSZ001>006-013>018-027>032-041>047-170800-
NORTHWEST KANSAS

CITY           SKY/WX    TMP DP  RH WIND       PRES   REMARKS
GOODLAND       CLOUDY    25  22  88 W9        30.09R
HAYS           PTCLDY    33  30  88 NW9       30.06S
HILL CITY      PTCLDY    33  28  81 NW12      30.07S WCI  24
RUSSELL        CLOUDY    34  31  88 NW9       30.04S
$$

KSZ061>065-074>080-084>089-170800-
SOUTHWEST KANSAS

CITY           SKY/WX    TMP DP  RH WIND       PRES   REMARKS
DODGE CITY     PTCLDY    33  31  92 NW13      30.07F WCI  24
ELKHART          N/A     33  23  66 NW12        N/A  WCI  24
GARDEN CITY    CLOUDY    34  30  85 NW12      30.09S WCI  25
GREAT BEND     CLOUDY    33  31  92 NW8       30.06S
LIBERAL        CLOUDY    36  30  80 NW9       30.13R
PRATT          CLOUDY    31  29  92 NW7       30.06S
$$

KSZ066>073-081>083-090>101-170800-
SOUTHEAST KANSAS

CITY           SKY/WX    TMP DP  RH WIND       PRES   REMARKS
CHANUTE        CLOUDY    38  34  85 W10       30.02S WCI  31
HUTCHINSON     CLOUDY    35  33  92 NW8       30.05R
MEDICINE LODGE   N/A     36  32  85 NW7       30.08F
NEWTON         CLOUDY    33  33 100 NW8       30.04R FOG
PARSONS        CLOUDY    38  35  89 W9        30.04R
WICHITA INTL   DRIZZLE   35  34  96 NW9       30.05S
WICHITA JABRA  CLOUDY    34  33  96 NW8       30.05R
WICHITA MCCONL CLOUDY    35  32  90 NW12      30.04F WCI  27
WINFIELD       CLOUDY    36  34  92 W10       30.06S WCI  28
$$

KSZ007>012-019>026-033>040-048>060-102>105-170800-
NORTHEAST KANSAS

CITY           SKY/WX    TMP DP  RH WIND       PRES   REMARKS
CONCORDIA      CLOUDY    32  32 100 NW7       30.03R
EMPORIA        CLOUDY    34  34 100 W8        30.01R FOG
LAWRENCE       CLOUDY    35  34  96 W7        29.98S
MANHATTAN      CLOUDY    34  33  96 NW6       30.01F FOG
MARYSVILLE     CLOUDY    32  32 100 NW9       30.00R FOG
OLATHE IND     CLOUDY    35  34  96 W10       29.98R WCI  27
OLATHE EXE     CLOUDY    34  34 100 W7        29.96R
SALINA           N/A    N/A N/A N/A MISG        N/A
TOPEKA BILLARD CLOUDY    35  32  88 W6        29.98S
TOPEKA FORBES  CLOUDY    36  33  89 W9        29.98S
$$




USA.gov is the U.S. government's official web portal to all federal, state and local government web resources and services.